Weather in Ochyor

Russia / Perm Krai     57°53′06″N   54°42′57″E
В апреле 2022 года жителям России запретили посещать сайт meteo.paraplan.net по решению Генеральной прокуратуры. Аудитория сайта уменьшилась в 10 раз. Владельцы сайта не видят смысла в поддержке погодного сервера в таких условиях. Сайт будет закрыт в октябре.
temp.,
°C
wind,
m/s
gust,
m/s
humid.,
%
clouds,
%
prec.,
mm/h
press.,
hPa
HPBL,
m
4 october, tue
tue423:00+10ssw5147060 0.0 1022369
02:00+9ssw4146712 0.0 1024384
05:00+8ssw4126936 0.0 1025288
08:00+7s3116968 0.0 1026248
11:00+11s5115056 0.0 1027423
14:00+14ssw5103872 0.0 1027721
17:00+14ssw49418 0.0 1028631
20:00+9s2655100 0.0 102992
5 october, wed
wed523:00+8s3105798 0.0 1028226
02:00+7sse3960100 0.0 1028181
05:00+6sse3106121 0.0 1028218
08:00+5s31259100 0.0 1027329
11:00+6s41170100 0.2 10271104
14:00+8s41268100 0.1 1026863
17:00+9s4115190 0.1 1025683
20:00+7sse395158 0.0 1024294
6 october, thu
thu623:00+6sse3957100 0.0 1023239
02:00+7sse41055100 0.0 1022398
05:00+6s41071100 0.8 1021496
08:00+4se41292100 3.3 1018593
11:00+7sse3989100 3.8 1016560
14:00+7s3781100 0.1 1015489
17:00+7sse258976 1.1 1015409
20:00+7sse2493100 0.1 1015160
7 october, fri
fri723:00+6sw1195100 0.1 101417
02:00+6sw1197100 0.1 101432
05:00+6sw1297100 0.2 101449
08:00+6w129792 0.1 101492
11:00+7sw3690100 0.3 1013307
14:00+10wsw47655 0.1 10121038
17:00+9sw4971100 0.1 10111057
20:00+7sw51089100 1.0 10111109
8 october, sat
sat823:00+7wsw51092100 2.6 10101118
02:00+8w51090100 0.4 1010741
05:00+7wnw51189100 0.5 1012701
08:00+7wnw51087100 1.5 10141061
11:00+8wnw6108248 1.7 1016947
14:00+9wnw5977100 0.1 1017989
17:00+9w477334 0.2 10191059
20:00+7w4878100 0.1 1021696